Temp
16 17 17 17 17 17 17 17 17 17 18 18 18 17 18 18 18 19 19 18 19 19 19 19 19 20 20 21 21 21 21 21 21 21 21 21 21 21 20 20 20 20
16 16 17 17 17 17 17 17 17 17 18 18 18 18 18 18 18 19 19 19 19 19 19 19 19 20 20 20 20 20 21 21 21 21 21 21 21 20 20 20 20 20
17 15 16 16 17 17 17 17 17 17 18 18 18 18 19 19 19 19 19 19 19 19 19 19 19 19 20 20 20 20 20 20 20 21 21 21 20 20 20 20 20 20
18 17 16 16 17 17 17 17 17 17 17 17 18 18 18 19 19 19 19 19 19 19 19 19 19 19 19 19 20 20 20 20 20 20 20 20 20 20 20 20 20 20
20 19 17 16 16 17 17 17 17 17 17 17 17 18 18 18 18 19 19 19 19 19 19 19 19 19 19 19 19 19 20 20 20 20 20 20 20 20 20 20 20 20
21 20 18 16 16 16 17 17 17 17 17 17 17 17 18 18 18 18 19 19 19 19 19 19 19 19 19 19 19 19 19 19 20 20 20 20 20 20 20 20 20 20
20 19 18 16 16 16 16 17 17 17 17 17 17 17 18 18 18 18 19 19 19 19 19 19 19 19 19 19 19 19 19 19 19 19 19 19 19 19 20 20 20 20
18 18 17 16 16 16 16 16 16 16 17 17 17 17 18 18 18 18 19 19 19 19 19 19 18 19 19 19 19 19 19 19 19 19 19 19 19 19 19 19 20 20
17 17 16 16 16 16 16 16 16 16 17 17 17 17 18 18 18 18 18 19 19 19 19 19 19 19 18 18 19 19 18 18 18 19 19 19 19 19 19 19 19 20
16 16 16 16 16 16 16 16 16 16 16 17 17 17 17 18 18 18 18 18 19 19 19 18 19 19 18 18 19 19 18 18 18 18 19 19 19 19 19 19 19 20
16 16 16 16 16 16 16 16 16 16 16 17 17 17 17 18 18 18 18 18 19 19 19 18 18 19 18 18 18 18 18 19 18 18 18 19 19 19 19 19 19 19
15 16 16 16 16 16 16 16 16 16 16 16 17 17 17 17 18 18 18 18 18 19 19 18 18 18 18 18 18 18 18 18 18 18 18 19 19 19 19 19 19 19
15 16 16 16 16 16 16 16 16 16 16 16 17 17 17 17 17 18 18 18 18 18 19 19 18 18 18 18 18 18 18 18 18 18 18 18 19 19 19 19 19 19
16 16 16 16 16 16 16 16 16 16 16 16 16 17 17 17 17 17 18 18 18 18 18 18 18 18 18 18 18 18 18 18 18 18 18 18 18 18 18 18 19 19
16 16 16 16 16 16 15 16 16 16 16 16 16 16 17 17 17 17 17 17 17 17 16 17 17 17 17 18 18 18 18 18 18 18 18 18 18 18 18 18 19 19
16 16 16 16 16 16 15 15 16 15 15 16 16 16 16 17 17 17 17 17 17 17 16 16 17 17 17 17 18 18 18 18 18 18 18 18 18 18 18 18 18 19
16 16 16 16 16 16 15 15 15 15 15 16 16 16 16 16 17 17 17 17 17 17 16 16 17 18 18 19 19 19 18 17 18 18 18 18 18 18 18 18 18 18
16 16 16 16 16 16 16 15 15 15 15 16 16 16 16 16 16 17 17 17 17 16 16 16 17 18 18 19 19 20 19 18 18 18 18 18 18 18 18 18 18 18
16 16 16 15 16 16 16 15 15 15 15 16 16 16 16 16 16 16 16 16 16 16 16 16 17 17 18 18 19 19 19 19 18 18 18 18 18 18 18 18 18 18
16 16 16 16 16 16 15 15 15 15 16 16 16 16 16 16 16 16 16 16 16 16 16 16 17 17 17 18 18 18 18 18 19 19 18 18 18 18 18 18 18 18
16 16 16 16 16 16 15 15 16 15 16 16 16 16 16 16 16 16 16 16 16 16 16 16 17 17 17 18 18 18 18 18 18 18 18 18 18 18 18 18 18 18
16 16 16 16 16 16 16 16 16 16 16 16 16 16 16 16 16 16 16 16 16 16 16 16 16 17 17 17 18 17 17 18 18 18 18 18 18 18 18 18 18 18
16 15 16 16 16 16 16 16 16 16 16 16 16 16 16 16 16 16 16 16 16 16 16 16 16 16 17 17 18 17 17 17 17 17 17 17 18 18 18 18 18 18
15 15 15 16 16 16 16 16 16 16 16 16 16 16 16 16 16 16 16 15 15 15 16 16 16 16 17 17 17 17 17 17 17 17 17 17 18 18 18 18 18 18
15 15 15 15 16 16 16 15 15 16 16 16 16 16 16 16 16 16 16 15 15 15 15 16 16 16 16 17 17 17 17 17 17 17 17 17 17 17 17 18 18 18
15 15 15 15 15 15 15 15 15 16 16 16 16 16 16 16 16 16 16 16 15 15 15 15 16 16 16 17 17 16 16 16 16 17 17 17 17 17 17 17 17 18
Height
739 736 736 738 741 743 746 749 751 753 755 756 758 759 762 765 767 769 771 773 775 776 778 780 782 784 786 789 791 793 794 796 797 798 801 802 804 807 809 812 814 815
740 739 736 736 738 741 744 746 748 749 751 753 755 758 761 763 765 766 767 770 772 773 775 777 779 781 784 786 788 790 791 793 794 796 798 799 802 804 806 809 811 812
735 740 739 736 735 738 740 742 744 746 748 750 752 754 755 757 760 762 764 766 768 770 772 774 776 778 781 783 785 787 789 790 792 794 796 797 799 801 803 806 808 809
728 736 740 738 735 734 737 739 741 743 746 748 750 752 753 754 755 757 759 761 764 766 769 771 773 775 778 780 782 784 786 788 790 792 793 795 797 798 800 803 805 806
722 728 735 739 737 733 734 736 738 740 743 745 747 750 752 753 754 754 755 757 759 762 765 767 770 772 775 777 779 781 783 785 787 789 791 792 794 796 798 800 801 803
717 721 727 735 737 734 732 733 735 737 739 742 745 747 749 750 752 753 753 753 755 758 761 763 766 769 772 774 776 778 781 783 785 787 788 790 792 793 795 796 798 800
711 716 721 728 733 733 731 730 732 734 736 739 742 744 746 748 749 751 751 752 753 754 757 760 762 765 768 771 774 776 778 780 782 784 786 787 790 791 792 793 795 797
707 713 718 722 727 730 731 729 729 731 733 736 738 740 742 744 746 748 749 750 751 751 754 756 759 762 765 768 771 773 775 777 779 781 783 785 787 788 789 790 792 793
705 710 714 718 722 725 728 728 727 729 731 733 735 737 739 741 743 745 746 747 748 749 751 753 756 759 763 765 767 769 771 774 776 778 780 782 783 785 787 788 789 790
702 706 710 713 717 719 723 725 726 727 728 730 732 734 736 738 740 742 743 744 746 747 749 751 753 756 759 762 764 766 768 770 772 774 776 778 780 782 784 785 786 787
700 703 706 709 712 714 716 720 724 725 726 727 730 732 733 735 737 739 740 742 743 745 747 749 751 753 756 759 761 763 765 767 769 771 773 775 777 779 781 782 784 785
697 699 702 704 707 709 712 715 720 723 723 725 727 729 731 732 734 736 738 739 741 743 745 746 749 751 753 756 759 761 763 764 766 768 770 772 774 776 778 780 781 783
693 695 697 699 702 706 708 711 715 719 721 722 724 727 728 730 731 733 735 737 739 741 742 744 746 749 751 754 756 759 761 762 764 765 768 770 772 774 776 778 779 781
689 691 692 695 699 703 705 708 711 715 718 719 721 723 725 727 728 730 733 735 737 738 740 742 744 747 749 752 754 757 759 761 762 764 766 768 770 771 773 775 777 778
685 687 689 692 696 700 703 705 707 712 715 717 718 720 722 724 726 728 731 733 734 735 738 740 743 745 748 751 754 756 757 759 761 763 764 766 768 770 771 773 775 776
682 684 686 690 693 696 700 702 705 709 712 715 716 718 720 722 724 727 728 730 731 733 736 738 741 743 746 750 753 755 757 758 760 761 763 764 766 768 769 771 773 774
678 681 683 686 689 692 696 699 702 706 710 712 714 716 718 720 722 724 725 726 729 731 733 735 737 738 740 743 746 749 753 757 759 760 761 762 764 765 767 769 771 772
675 678 680 683 686 689 693 696 700 703 707 710 711 713 716 718 720 721 722 723 726 728 730 732 734 734 736 738 739 742 746 751 755 757 759 760 761 763 764 766 768 769
672 675 678 680 683 686 690 693 697 700 704 707 709 710 713 715 717 718 719 720 722 725 727 729 730 731 733 734 736 738 741 745 748 752 754 756 758 759 761 763 764 766
669 672 675 678 681 684 688 691 694 697 700 704 707 708 710 711 713 715 716 717 719 721 722 724 725 727 729 731 733 736 739 742 743 746 748 750 752 754 756 758 761 763
667 670 673 676 679 683 686 689 691 694 697 701 704 706 707 708 710 711 713 714 715 717 718 719 720 722 725 727 729 732 737 740 741 742 743 744 746 748 751 753 756 758
666 669 672 675 678 681 684 686 689 691 694 698 701 703 705 706 708 709 710 712 713 714 715 716 717 718 720 723 726 729 733 737 739 741 741 741 741 743 745 747 750 752
665 668 671 674 676 679 681 684 686 688 691 695 698 700 702 704 706 707 708 710 711 712 713 713 714 715 717 719 722 726 729 733 735 738 739 739 739 739 741 743 745 747
664 667 670 672 675 677 679 681 683 686 689 692 694 696 698 700 702 704 705 707 708 709 710 711 711 712 714 715 718 721 725 728 730 733 735 736 736 736 737 739 740 742
664 667 669 672 674 675 676 678 681 684 687 689 691 693 695 696 698 700 701 703 704 706 706 707 708 709 710 712 715 718 721 724 726 729 730 730 731 732 734 735 737 738
665 667 669 671 672 674 675 678 680 683 685 687 689 691 692 694 695 696 697 699 700 702 703 703 704 705 706 708 711 714 717 720 722 724 724 724 725 727 729 731 733 735
Wind_Speed
33 36 36 35 35 34 33 33 33 32 32 31 30 28 28 30 33 34 34 35 36 37 36 35 35 36 36 36 34 33 33 33 32 31 30 30 29 27 26 24 23 22
28 31 33 33 33 33 32 33 35 36 36 37 35 33 31 30 32 35 36 35 36 36 35 35 35 35 36 36 35 34 33 33 32 30 29 29 29 28 26 24 22 21
26 27 29 32 33 33 34 35 36 37 37 37 38 39 39 38 37 37 37 37 37 37 35 35 35 35 36 36 35 34 34 33 31 29 29 29 28 28 26 25 22 21
29 27 27 30 34 36 36 36 36 35 34 35 37 38 38 39 40 39 38 38 38 38 35 34 35 35 36 36 35 34 34 33 32 30 30 30 29 28 27 25 23 21
31 29 28 30 33 35 36 36 36 36 34 34 36 36 36 37 38 39 39 39 40 39 37 35 35 35 35 35 35 34 33 32 32 31 31 31 30 30 28 26 25 23
32 32 31 32 33 34 35 37 37 36 35 35 34 35 37 36 36 38 39 39 40 39 38 36 35 35 35 35 34 34 33 32 32 31 31 31 31 30 29 28 26 24
33 35 34 34 34 34 35 37 36 35 35 35 34 35 37 36 36 37 38 38 38 37 36 36 36 35 35 34 34 34 33 32 31 30 31 30 30 30 29 29 28 26
33 35 35 34 34 33 33 34 35 35 34 33 34 35 37 36 36 36 37 36 36 35 34 34 34 34 34 34 34 33 32 31 30 30 30 30 29 29 30 29 29 27
31 32 33 33 34 33 32 33 34 34 33 33 34 35 35 36 35 35 35 35 34 33 33 33 33 34 34 34 34 34 32 31 30 30 30 30 30 30 30 30 30 28
30 31 33 33 35 35 34 34 33 32 33 34 34 33 33 34 34 34 33 33 34 34 32 33 33 33 33 34 35 34 33 32 31 31 31 32 32 31 30 30 31 30
30 32 33 35 36 36 36 34 32 32 33 33 33 33 32 33 33 33 33 33 35 35 34 32 33 33 33 33 34 34 33 32 31 31 32 32 33 32 31 31 32 30
30 32 35 37 37 37 36 34 32 32 32 32 33 32 32 33 33 34 33 33 34 36 35 33 32 32 32 33 33 32 31 31 30 30 31 32 32 32 31 31 32 29
32 34 37 38 37 36 35 33 32 33 33 32 33 33 32 32 34 34 34 34 34 36 36 34 32 31 32 31 31 31 30 30 30 29 30 31 31 31 31 31 31 29
34 37 38 37 35 33 32 32 32 32 33 33 33 33 33 33 34 34 33 33 32 32 32 32 29 29 31 31 30 30 30 29 28 28 29 30 30 30 30 30 30 29
34 36 36 34 31 30 29 30 31 31 32 32 32 33 34 33 33 32 31 32 31 28 26 25 24 23 25 27 27 28 28 27 27 27 27 28 28 28 28 29 30 30
32 33 32 30 29 29 29 29 29 29 30 30 31 32 31 31 31 30 31 33 34 31 28 28 29 28 26 26 25 25 25 25 25 26 26 26 26 26 27 28 30 31
30 30 30 30 30 29 29 28 28 28 28 29 29 29 29 29 29 30 31 32 32 32 30 30 33 35 34 32 30 28 26 25 25 25 25 25 26 26 26 27 29 31
28 29 29 29 29 29 29 28 27 26 26 27 27 27 28 28 28 29 31 31 30 30 30 30 32 35 34 33 33 32 31 30 29 27 25 25 25 26 27 27 28 30
28 28 28 28 29 29 28 27 26 26 26 26 27 27 27 27 28 29 29 29 29 29 29 31 33 35 34 33 33 34 34 33 33 31 28 27 27 27 28 29 29 29
27 28 28 28 28 28 27 26 26 26 27 26 26 26 26 27 28 28 28 28 28 29 30 33 34 35 35 34 34 35 35 35 34 34 32 31 30 29 30 30 30 30
26 27 27 27 27 27 26 26 27 26 26 26 26 26 27 27 28 28 29 29 29 30 30 32 33 34 35 36 36 36 36 36 35 35 34 33 32 31 31 31 31 31
25 25 26 26 26 27 27 26 26 26 26 26 26 25 26 26 26 27 28 29 29 29 30 31 32 34 35 36 37 36 36 35 34 33 32 32 32 32 32 32 32 31
24 24 24 25 25 26 26 25 25 25 25 26 26 25 24 25 26 27 28 28 28 29 30 31 33 34 35 36 37 36 35 35 34 33 31 31 31 32 32 32 32 32
22 23 23 23 25 25 25 25 24 25 26 27 28 27 27 28 29 28 29 29 29 30 32 32 33 34 35 36 37 37 35 35 35 33 32 32 32 31 31 32 32 32
18 20 22 23 25 25 24 23 24 25 26 27 28 28 28 29 29 29 29 30 31 32 33 34 34 34 35 36 37 36 35 35 34 33 33 34 34 33 32 32 32 31
14 16 19 21 22 21 20 20 21 23 23 25 26 27 28 28 29 29 30 31 31 32 33 35 35 35 35 36 37 36 35 34 33 33 34 35 34 33 33 31 31 31
Wind_Direction
231 219 212 209 208 209 209 208 209 210 211 213 213 210 207 209 212 212 216 219 219 220 220 220 220 222 223 225 226 228 230 231 232 234 236 240 242 244 245 247 251 253
249 233 216 208 207 208 208 209 210 211 211 212 213 212 210 211 215 216 217 219 220 221 220 219 220 221 222 223 223 224 226 227 229 232 235 239 241 243 245 248 251 252
249 251 231 212 206 207 209 210 211 213 212 212 212 212 211 211 213 215 217 218 220 221 219 218 219 219 220 221 221 222 223 225 228 231 235 238 240 243 246 249 249 248
232 250 247 225 211 209 210 210 211 212 212 212 212 212 212 212 213 213 215 217 219 219 218 217 218 218 219 219 220 221 223 226 230 233 236 238 240 243 246 249 247 245
227 239 247 239 223 212 209 210 211 212 211 212 212 211 211 213 214 214 214 215 217 218 218 217 217 218 218 219 219 221 223 225 229 232 234 236 239 242 245 247 245 242
228 231 235 239 233 219 210 211 213 213 212 213 212 211 212 213 214 215 214 214 215 216 216 216 216 217 218 218 219 221 222 224 226 229 231 234 238 240 243 244 243 241
218 222 224 228 231 225 216 213 213 213 212 212 212 211 212 212 212 214 215 215 214 214 215 216 216 216 217 218 218 220 222 223 224 226 229 232 235 237 239 240 241 240
211 215 218 220 224 226 223 217 214 213 212 211 211 211 212 212 213 215 216 216 216 215 215 215 216 216 216 217 218 219 220 221 222 224 227 230 232 235 236 237 239 240
215 215 216 216 217 222 225 223 217 213 210 211 212 212 212 213 214 216 217 217 218 218 218 217 217 217 217 217 218 219 219 219 221 222 225 228 231 233 234 234 236 238
218 217 216 215 215 217 222 225 221 214 210 211 212 212 212 212 214 216 217 218 219 221 221 219 218 218 218 219 220 220 220 220 221 222 225 228 231 233 233 232 233 235
216 216 215 215 215 214 217 222 221 215 211 210 212 213 212 212 213 215 217 218 220 222 223 221 219 219 219 220 222 221 221 221 221 222 225 228 231 233 232 231 231 232
213 213 215 215 215 213 214 217 219 217 212 209 210 212 212 212 213 214 216 218 220 223 224 223 221 219 219 221 222 223 222 222 223 224 226 228 230 232 232 231 231 232
212 212 215 215 215 214 212 213 216 217 213 210 209 211 211 212 213 215 216 217 219 221 224 225 223 221 222 223 223 224 224 223 223 224 226 228 230 231 231 230 231 231
212 213 214 214 214 213 211 210 212 215 214 211 209 210 213 213 214 216 217 219 221 221 222 223 221 218 220 223 224 224 224 224 224 224 224 226 229 230 230 229 231 231
211 211 212 212 211 210 210 209 210 213 214 212 210 211 213 214 215 216 217 220 223 224 224 223 220 218 217 220 224 225 224 225 225 225 225 226 229 231 230 230 231 232
209 208 207 207 207 208 209 209 209 212 213 212 211 212 214 214 215 215 216 220 222 224 227 226 224 225 223 222 225 227 227 228 227 228 228 229 231 233 234 233 233 234
206 203 202 202 204 206 207 208 208 210 212 212 211 212 214 214 215 215 217 221 222 223 225 224 224 227 225 223 226 228 229 231 232 232 231 231 233 234 236 237 236 236
202 199 198 199 200 203 206 206 207 208 212 212 210 211 214 215 216 217 219 223 223 221 221 222 224 226 225 224 225 225 225 227 231 234 233 233 234 235 238 240 240 239
197 195 195 196 198 201 203 203 204 206 211 212 211 210 212 214 217 219 220 222 222 220 220 222 224 225 225 224 225 224 221 221 224 228 231 232 234 236 238 240 240 240
193 191 192 194 196 198 199 199 200 204 209 213 214 211 209 211 216 218 218 219 220 221 223 225 225 225 224 224 225 224 221 220 221 223 226 229 232 235 237 237 238 238
188 188 189 192 194 194 195 197 199 203 207 211 213 212 211 212 215 218 218 218 219 220 223 226 227 227 226 226 226 224 223 223 223 222 222 224 228 231 233 234 235 236
188 187 188 191 192 193 195 197 198 201 205 208 211 212 213 214 216 219 220 220 219 219 220 225 228 229 228 228 228 227 224 224 224 222 221 221 224 228 231 232 234 235
189 187 188 190 191 192 195 196 197 200 203 206 207 209 211 214 218 222 223 223 222 221 221 225 228 230 230 229 230 229 225 223 222 222 223 224 225 227 229 231 232 233
191 189 188 189 192 195 197 198 199 202 204 206 206 207 210 214 219 222 225 225 224 224 224 226 229 230 231 231 231 229 225 223 222 221 222 226 228 228 229 231 232 232
193 193 192 192 196 199 201 201 202 204 206 207 208 209 212 216 218 220 223 225 226 227 228 228 230 232 233 233 233 230 226 224 222 218 219 224 227 227 228 230 232 232
197 197 198 199 202 204 204 205 206 206 207 208 210 214 216 218 219 220 222 224 226 228 229 229 230 232 233 234 233 230 226 222 218 216 219 222 223 223 224 227 230 231